Hall Beach,

4:19 PM EDT on July 28, 2017 (GMT -0400)
Hall Beach

Weather History for CYUX - January, 2013

Change the Weather History Date:

Wednesday, January 16, 2013

  Actual Average Record
Temperature  
Mean Temperature -16 °F -  
Max Temperature -2 °F -19 °F 8 °F (2008)
Min Temperature -29 °F -33 °F -47 °F (2000)
Degree Days  
Heating Degree Days 80    
Moisture  
Dew Point -20 °F    
Average Humidity 79    
Maximum Humidity 85    
Minimum Humidity 69    
Precipitation  
Precipitation 0.00 in 0.01 in - ()
Sea Level Pressure  
Sea Level Pressure 29.36 in    
Wind  
Wind Speed 6 mph ()    
Max Wind Speed 9 mph    
Max Gust Speed -    
Visibility 6.1 miles    
Events Snow    
Averages and records for this station are not official NWS values.
T = Trace of Precipitation, MM = Missing Value Source: Averaged Metar Reports

Daily Weather History Graph

Daily Weather History Graph

Search for Another Location

Airport or City:

Trip Planner

Search our weather history database for the weather conditions in past years. The results will help you decide how hot, cold, wet, or windy it might be!

Date:

Astronomy

Jan. 16, 2013 Rise Set
Actual Time 11:12 AM EST 1:58 PM EST
Civil Twilight 9:23 AM EST 3:47 PM EST
Nautical Twilight 8:00 AM EST 5:10 PM EST
Astronomical Twilight 6:50 AM EST 6:20 PM EST
Moon 9:55 AM EST (1/16) No Moon Set
Length of Visible Light 6h 23m
Length of Day
2h 45m
Waxing Crescent, 28% of the Moon is Illuminated
Jan 16
Waxing Crescent
Jan 18
First Quarter
Jan 26
Full
Feb 3
Last Quarter
Feb 10
New

Hourly Weather History & Observations

Time (EST) Temp. Windchill Dew Point Humidity Pressure Visibility Wind Dir Wind Speed Gust Speed Precip Events Conditions
12:00 AM -2.2 °F -18.0 °F -5.8 °F 85% 29.34 in 5.0 mi SSE 9.2 mph - N/A Snow Light Snow
12:01 AM -2.2 °F -18.0 °F -5.8 °F 85% 29.34 in 6.0 mi South 9.2 mph - N/A Snow Light Snow
12:45 AM -5.8 °F -19.9 °F -9.4 °F 84% 29.34 in 5.0 mi SW 6.9 mph - N/A Snow Light Snow
1:00 AM -5.8 °F -18.4 °F -11.2 °F 77% 29.34 in 4.0 mi SW 5.8 mph - N/A Snow Light Snow
1:07 AM -7.6 °F -22.1 °F -11.2 °F 84% 29.34 in 2.5 mi SW 6.9 mph - N/A Snow Light Snow
1:10 AM -7.6 °F -22.1 °F -11.2 °F 84% 29.34 in 2.0 mi SW 6.9 mph - N/A Snow Light Snow
1:11 AM -7.6 °F -22.1 °F -11.2 °F 84% 29.34 in 2.0 mi SW 6.9 mph - N/A Snow Light Snow
1:46 AM -7.6 °F -18.8 °F -11.2 °F 84% 29.36 in 1.5 mi WSW 4.6 mph - N/A Snow Light Snow
2:00 AM -7.6 °F -20.6 °F -11.2 °F 84% 29.36 in 1.2 mi WSW 5.8 mph - N/A Snow Light Snow
2:02 AM -7.6 °F -18.8 °F -11.2 °F 84% 29.36 in 1.0 mi WSW 4.6 mph - N/A Snow Light Snow
2:08 AM -7.6 °F -20.6 °F -11.2 °F 84% 29.36 in 1.0 mi WSW 5.8 mph - N/A Snow Light Snow
2:17 AM -7.6 °F -20.6 °F -11.2 °F 84% 29.36 in 1.2 mi WSW 5.8 mph - N/A Snow Light Snow
2:21 AM -7.6 °F -20.6 °F -13.0 °F 77% 29.36 in 1.2 mi WSW 5.8 mph - N/A Snow Light Snow
2:31 AM -9.4 °F -20.9 °F -13.0 °F 84% 29.37 in 1.2 mi WSW 4.6 mph - N/A Snow Light Snow
3:00 AM -9.4 °F -24.3 °F -13.0 °F 84% 29.37 in 1.8 mi WSW 6.9 mph - N/A Snow Light Snow
3:05 AM -9.4 °F -22.7 °F -13.0 °F 84% 29.37 in 2.2 mi West 5.8 mph - N/A Snow Light Snow
3:35 AM -9.4 °F -22.7 °F -13.0 °F 84% 29.37 in 3.0 mi WSW 5.8 mph - N/A Snow Light Snow
4:00 AM -9.4 °F -22.7 °F -13.0 °F 84% 29.37 in 3.0 mi West 5.8 mph - N/A Snow Light Snow
4:27 AM -11.2 °F -24.8 °F -14.8 °F 84% 29.37 in 3.0 mi West 5.8 mph - N/A Snow Light Snow
4:34 AM -11.2 °F -23.0 °F -14.8 °F 84% 29.37 in 5.0 mi West 4.6 mph - N/A Snow Light Snow
4:42 AM -11.2 °F -20.6 °F -14.8 °F 84% 29.37 in 6.0 mi West 3.5 mph - N/A Snow Light Snow
4:56 AM -11.2 °F -23.0 °F -16.6 °F 77% 29.37 in 9.0 mi West 4.6 mph - N/A   Overcast
4:59 AM -11.2 °F -23.0 °F -16.6 °F 77% 29.37 in 9.0 mi West 4.6 mph - N/A Snow Light Snow
5:00 AM -11.2 °F -23.0 °F -16.6 °F 77% 29.37 in 9.0 mi West 4.6 mph - N/A Snow Light Snow
6:35 AM -16.6 °F -29.3 °F -20.2 °F 84% 29.37 in 9.0 mi WNW 4.6 mph - N/A   Mostly Cloudy
6:46 AM -16.6 °F -29.3 °F -20.2 °F 84% 29.37 in 9.0 mi West 4.6 mph - N/A Snow Light Snow
6:48 AM -16.6 °F -29.3 °F -20.2 °F 84% 29.37 in 7.0 mi West 4.6 mph - N/A Snow Light Snow
6:49 AM -16.6 °F -29.3 °F -20.2 °F 84% 29.37 in 5.0 mi West 4.6 mph - N/A Snow Light Snow
6:54 AM -14.8 °F -27.2 °F -20.2 °F 77% 29.37 in 3.0 mi West 4.6 mph - N/A Snow Light Snow
7:33 AM -16.6 °F -29.3 °F -22.0 °F 76% 29.38 in 3.0 mi West 4.6 mph - N/A Snow Light Snow
8:00 AM -16.6 °F -26.8 °F -22.0 °F 76% 29.38 in 3.0 mi WNW 3.5 mph - N/A Snow Light Snow
9:00 AM -14.8 °F -24.8 °F -20.2 °F 77% 29.38 in 3.0 mi WNW 3.5 mph - N/A Snow Light Snow
10:00 AM -14.8 °F -29.1 °F -18.4 °F 84% 29.38 in 7.0 mi WSW 5.8 mph - N/A Snow Light Snow
11:00 AM -13.0 °F -27.0 °F -16.6 °F 84% 29.37 in 5.0 mi SW 5.8 mph - N/A Snow Light Snow Grains
12:00 PM -16.6 °F -32.9 °F -22.0 °F 76% 29.36 in 12.0 mi SW 6.9 mph - N/A   Ice Crystals
1:00 PM -23.8 °F -37.7 °F -27.4 °F 83% 29.36 in 12.0 mi WSW 4.6 mph - N/A   Ice Crystals
2:00 PM -22.0 °F -39.4 °F -27.4 °F 76% 29.36 in 10.0 mi SW 6.9 mph - N/A   Ice Crystals
3:00 PM -25.6 °F -41.9 °F -32.8 °F 69% 29.36 in 10.0 mi WSW 5.8 mph - N/A   Ice Crystals
4:00 PM -25.6 °F -37.1 °F -31.0 °F 76% 29.37 in 12.0 mi SW 3.5 mph - N/A   Ice Crystals
5:00 PM -25.6 °F -41.9 °F -31.0 °F 76% 29.37 in 12.0 mi SW 5.8 mph - N/A   Ice Crystals
6:00 PM -27.4 °F -41.9 °F -32.8 °F 75% 29.36 in 15.0 mi WSW 4.6 mph - N/A   Ice Crystals
7:00 PM -29.2 °F -41.2 °F -34.6 °F 75% 29.35 in 15.0 mi NNW 3.5 mph - N/A   Ice Crystals
7:36 PM -27.4 °F - -34.6 °F 69% 29.34 in 9.0 mi Variable 2.3 mph - N/A Snow Light Snow
8:00 PM -25.6 °F - -31.0 °F 76% 29.35 in 9.0 mi NNW 2.3 mph - N/A Snow Light Snow
8:12 PM -25.6 °F - -31.0 °F 76% 29.34 in 5.0 mi Variable 2.3 mph - N/A Snow Light Snow
8:23 PM -23.8 °F -35.0 °F -31.0 °F 69% 29.34 in 6.0 mi WNW 3.5 mph - N/A Snow Light Snow
8:32 PM -23.8 °F -37.7 °F -31.0 °F 69% 29.34 in 5.0 mi WNW 4.6 mph - N/A Snow Light Snow
8:42 PM -23.8 °F -39.8 °F -29.2 °F 76% 29.34 in 6.0 mi NNW 5.8 mph - N/A Snow Light Snow
9:00 PM -23.8 °F -39.8 °F -29.2 °F 76% 29.34 in 9.0 mi North 5.8 mph - N/A Snow Light Snow
9:07 PM -23.8 °F -41.6 °F -29.2 °F 76% 29.34 in 5.0 mi NNW 6.9 mph - N/A Snow Light Snow
9:25 PM -23.8 °F -44.5 °F -29.2 °F 76% 29.34 in 5.0 mi NNW 9.2 mph - N/A Snow Light Snow
9:26 PM -23.8 °F -44.5 °F -29.2 °F 76% 29.34 in 6.0 mi NNW 9.2 mph - N/A Snow Light Snow
9:28 PM -23.8 °F -43.2 °F -29.2 °F 76% 29.33 in 9.0 mi NW 8.1 mph - N/A Snow Light Snow
10:00 PM -20.2 °F -40.1 °F -25.6 °F 76% 29.33 in 7.0 mi NNW 9.2 mph - N/A Snow Light Snow
10:50 PM -20.2 °F -40.1 °F -25.6 °F 76% 29.31 in 9.0 mi NNW 9.2 mph - N/A   Mostly Cloudy
10:58 PM -18.4 °F -37.9 °F -23.8 °F 76% 29.31 in 9.0 mi NNW 9.2 mph - N/A Snow Light Snow
11:00 PM -18.4 °F -37.9 °F -23.8 °F 76% 29.31 in 9.0 mi NNW 9.2 mph - N/A Snow Light Snow